Location: 22
(39.7117°N, 89.5929°W)
Time: 08:45:05
(UTC-05:00)

S-56A Canister/Altair - Pass Details

Date: 12 February 2023
Orbit: 638 x 2493 km, 38.9° (Epoch: 25 March)

Event Time Altitude Azimuth Distance (km) Brightness Sun altitude
Rises 14:57:53 0° 263° (W) 3,263 11.5 24.3°
Reaches altitude 10° 15:02:39 10° 225° (SW) 2,666 12.4 23.7°
Maximum altitude 15:03:54 11° 213° (SSW) 2,721 12.1 23.5°
Drops below altitude 10° 15:05:13 10° 202° (SSW) 2,872 11.8 23.3°
Sets 15:11:33 0° 167° (SSE) 4,378 11.8 22.4°
